Weather History for Pittsfield, IL

Change the Weather History Date:

Saturday, October 13, 2012

  Actual Average (KUIN) Record (KUIN)
Temperature  
Mean Temperature 62 °F 56 °F  
Max Temperature 73 °F 66 °F 87 °F (1975)
Min Temperature 51 °F 45 °F 22 °F (1909)
Degree Days  
Heating Degree Days 3 10  
Month to date heating degree days 108  
Since 1 July heating degree days 195  
Cooling Degree Days 0 1  
Month to date cooling degree days 14  
Year to date cooling degree days 1090  
Growing Degree Days 12 (Base 50)    
Moisture  
Dew Point 59 °F    
Average Humidity 86    
Maximum Humidity 94    
Minimum Humidity 69    
Precipitation  
Precipitation 1.27 in 0.09 in 1.93 in (1974)
Month to date precipitation 1.29  
Year to date precipitation 30.34  
Sea Level Pressure  
Sea Level Pressure 29.97 in    
Wind  
Wind Speed 9 mph (SSE)    
Max Wind Speed 17 mph    
Max Gust Speed 23 mph    
Visibility 6 miles    
Events Rain , Thunderstorm    
T = Trace of Precipitation, MM = Missing Value Source: NWS Daily Summary

Daily Weather History Graph

Daily Weather History Graph

Search for Another Location

Airport:

Trip Planner

Search our weather history database for the weather conditions in past years. The results will help you decide how hot, cold, wet, or windy it might be!

Date:

Astronomy

Oct. 13, 2012 Rise Set
Actual Time 7:11 AM CDT 6:26 PM CDT
Civil Twilight 6:44 AM CDT 6:53 PM CDT
Nautical Twilight 6:13 AM CDT 7:24 PM CDT
Astronomical Twilight 5:42 AM CDT 7:55 PM CDT
Moon 5:02 AM CDT (10/13) 5:09 PM CDT (10/13)
Length of Visible Light 12h 08m
Length of Day
11h 14m
Waning Crescent, 5% of the Moon is Illuminated
Oct 13
Waning Crescent
Oct 15
New
Oct 21
First Quarter
Oct 29
Full
Nov 6
Last Quarter

Hourly Weather History & Observations

Time (CDT) Temp. Dew Point Humidity Pressure Visibility Wind Dir Wind Speed Gust Speed Precip Events Conditions
12:35 AM 51.8 °F 46.4 °F 82% 30.19 in 10.0 mi ESE 5.8 mph - N/A   Clear
12:55 AM 52.2 °F 47.3 °F 83% 30.18 in 10.0 mi ESE 5.8 mph - N/A   Clear
1:15 AM 51.8 °F 46.4 °F 82% 30.16 in 10.0 mi SE 6.9 mph - N/A   Clear
1:35 AM 52.7 °F 47.7 °F 83% 30.16 in 10.0 mi SE 5.8 mph - N/A   Clear
1:55 AM 53.6 °F 48.2 °F 82% 30.14 in 10.0 mi SE 8.1 mph - N/A   Clear
2:15 AM 53.8 °F 48.4 °F 82% 30.14 in 10.0 mi SSE 10.4 mph - N/A   Clear
2:35 AM 53.8 °F 48.6 °F 82% 30.12 in 10.0 mi SE 10.4 mph - N/A   Clear
2:55 AM 54.1 °F 49.1 °F 83% 30.10 in 10.0 mi SE 9.2 mph - N/A   Scattered Clouds
3:15 AM 54.5 °F 49.5 °F 83% 30.09 in 10.0 mi SSE 12.7 mph - N/A   Clear
3:35 AM 54.7 °F 50.0 °F 84% 30.10 in 10.0 mi SSE 10.4 mph - N/A   Clear
3:55 AM 54.7 °F 50.2 °F 85% 30.09 in 10.0 mi SSE 9.2 mph - N/A   Clear
4:15 AM 55.2 °F 50.7 °F 85% 30.08 in 10.0 mi SSE 8.1 mph - N/A   Clear
4:35 AM 55.9 °F 51.4 °F 85% 30.07 in 7.0 mi SSE 11.5 mph - N/A   Clear
4:55 AM 57.2 °F 51.8 °F 82% 30.07 in 7.0 mi SSE 12.7 mph - N/A   Clear
5:15 AM 57.2 °F 51.8 °F 82% 30.09 in 7.0 mi South 9.2 mph - N/A   Light Drizzle
5:35 AM 57.0 °F 52.7 °F 85% 30.10 in 7.0 mi South 8.1 mph - N/A Rain Light Rain
5:55 AM 57.2 °F 52.9 °F 85% 30.09 in 7.0 mi South 10.4 mph - N/A   Mostly Cloudy
6:15 AM 56.7 °F 53.1 °F 88% 30.08 in 7.0 mi South 10.4 mph - N/A Rain Light Rain
6:35 AM 56.3 °F 53.2 °F 89% 30.07 in 5.0 mi South 11.5 mph - 0.01 in Rain Rain
6:55 AM 55.9 °F 53.4 °F 91% 30.06 in 5.0 mi South 11.5 mph - 0.03 in Rain Rain
7:15 AM 55.8 °F 53.6 °F 92% 30.05 in 4.0 mi South 12.7 mph 17.3 mph 0.02 in Rain Light Rain
7:55 AM 56.3 °F 54.5 °F 94% 30.04 in 3.0 mi South 8.1 mph - 0.03 in Thunderstorm Overcast
8:15 AM 57.2 °F 55.0 °F 92% 30.03 in 3.0 mi South 11.5 mph 20.7 mph N/A Rain , Thunderstorm Light Thunderstorms and Rain
8:35 AM 57.2 °F 55.4 °F 94% 30.03 in 3.0 mi South 13.8 mph 19.6 mph N/A   Light Drizzle
8:55 AM 58.3 °F 56.3 °F 93% 30.03 in 2.5 mi South 13.8 mph 18.4 mph 0.07 in Rain , Thunderstorm Heavy Thunderstorms and Rain
9:15 AM 59.0 °F 57.2 °F 94% 30.03 in 4.0 mi South 15.0 mph 20.7 mph N/A Rain , Thunderstorm Light Thunderstorms and Rain
9:35 AM 59.0 °F 57.2 °F 94% 30.03 in 3.0 mi South 10.4 mph 16.1 mph N/A Rain Rain
9:55 AM 59.9 °F 57.6 °F 92% 30.03 in 4.0 mi South 11.5 mph 17.3 mph 0.03 in   Overcast
10:15 AM 60.4 °F 58.1 °F 92% 30.03 in 3.0 mi South 9.2 mph - 0.02 in Rain Rain
10:35 AM 60.8 °F 59.0 °F 94% 30.02 in 4.0 mi South 9.2 mph - N/A Rain Light Rain
10:55 AM 62.6 °F 59.9 °F 91% 30.01 in 4.0 mi South 9.2 mph 17.3 mph 0.02 in   Overcast
11:15 AM 63.5 °F 60.6 °F 90% 30.02 in 5.0 mi SSW 6.9 mph - N/A Thunderstorm Overcast
11:35 AM 64.0 °F 61.2 °F 90% 30.00 in 3.0 mi South 5.8 mph - 0.02 in Rain Rain
11:55 AM 64.9 °F 62.1 °F 90% 30.00 in 4.0 mi South 5.8 mph - 0.03 in Rain Light Rain
12:35 PM 68.2 °F 64.2 °F 87% 29.98 in 5.0 mi South 6.9 mph - 0.01 in   Scattered Clouds
12:55 PM 69.3 °F 64.2 °F 84% 29.96 in 7.0 mi South 9.2 mph - 0.01 in   Mostly Cloudy
1:15 PM 70.2 °F 64.0 °F 81% 29.95 in 7.0 mi South 10.4 mph - N/A   Scattered Clouds
1:35 PM 71.6 °F 64.6 °F 78% 29.93 in 7.0 mi South 9.2 mph - N/A   Scattered Clouds
1:55 PM 72.5 °F 64.6 °F 76% 29.92 in 7.0 mi South 10.4 mph 16.1 mph N/A   Clear
2:15 PM 72.9 °F 64.4 °F 75% 29.91 in 7.0 mi South 8.1 mph - N/A   Clear
2:35 PM 73.0 °F 64.6 °F 75% 29.91 in 10.0 mi SSW 10.4 mph - N/A   Scattered Clouds
2:55 PM 73.0 °F 64.4 °F 74% 29.90 in 7.0 mi South 9.2 mph - N/A   Mostly Cloudy
3:35 PM 73.4 °F 64.0 °F 72% 29.86 in 10.0 mi South 13.8 mph 19.6 mph N/A   Clear
3:55 PM 73.8 °F 64.0 °F 72% 29.86 in 10.0 mi South 16.1 mph 19.6 mph N/A   Clear
4:15 PM 73.6 °F 63.7 °F 71% 29.85 in 10.0 mi South 15.0 mph 18.4 mph N/A   Light Drizzle
4:35 PM 73.4 °F 62.6 °F 69% 29.85 in 10.0 mi South 15.0 mph 20.7 mph N/A   Light Drizzle
4:55 PM 72.3 °F 63.3 °F 73% 29.85 in 7.0 mi SSW 17.3 mph 23.0 mph N/A Rain Light Rain
5:15 PM 69.8 °F 64.4 °F 83% 29.87 in 5.0 mi SSW 10.4 mph - N/A Rain Rain
5:35 PM 69.3 °F 64.6 °F 85% 29.86 in 5.0 mi South 16.1 mph 21.9 mph 0.06 in Rain Rain
5:55 PM 68.7 °F 64.8 °F 87% 29.86 in 7.0 mi South 15.0 mph 21.9 mph 0.09 in Rain Rain
6:15 PM 68.2 °F 64.9 °F 89% 29.86 in 7.0 mi South 12.7 mph 20.7 mph 0.01 in Rain Light Rain
6:35 PM 68.2 °F 64.9 °F 89% 29.87 in 7.0 mi South 13.8 mph 18.4 mph 0.02 in Rain Rain
6:55 PM 68.0 °F 65.1 °F 90% 29.89 in 5.0 mi South 11.5 mph 18.4 mph 0.06 in Rain Light Rain
7:15 PM 67.8 °F 65.1 °F 91% 29.88 in 5.0 mi South 11.5 mph - 0.03 in Rain , Thunderstorm Light Thunderstorms and Rain
7:35 PM 67.5 °F 64.8 °F 91% 29.88 in 5.0 mi South 9.2 mph - 0.07 in Rain Rain
7:55 PM 68.0 °F 64.4 °F 88% 29.91 in 5.0 mi SSW 10.4 mph - N/A Rain Heavy Rain
8:15 PM 67.3 °F 64.6 °F 91% 29.90 in 3.0 mi Calm Calm - 0.16 in Rain , Thunderstorm Heavy Thunderstorms and Rain
8:35 PM 68.0 °F 64.4 °F 88% 29.91 in 3.0 mi Calm Calm - N/A Rain , Thunderstorm Heavy Thunderstorms and Rain
8:55 PM 66.7 °F 64.4 °F 92% 29.89 in 2.5 mi Calm Calm - 0.42 in Rain Heavy Rain
9:15 PM 66.2 °F 64.4 °F 94% 29.87 in 3.0 mi ENE 6.9 mph - N/A Rain , Thunderstorm Light Thunderstorms and Rain
9:35 PM 66.4 °F 64.4 °F 93% 29.86 in 4.0 mi North 6.9 mph - 0.13 in Rain , Thunderstorm Thunderstorms and Rain
9:55 PM 67.1 °F 64.4 °F 91% 29.85 in 5.0 mi NNE 10.4 mph - 0.16 in Rain , Thunderstorm Light Thunderstorms and Rain
10:15 PM 67.3 °F 64.4 °F 90% 29.84 in 5.0 mi East 9.2 mph 17.3 mph 0.06 in Rain Rain
10:35 PM 66.2 °F 64.4 °F 94% 29.82 in 5.0 mi East 6.9 mph - N/A Rain Light Rain
10:55 PM 66.4 °F 64.4 °F 93% 29.81 in 3.0 mi East 6.9 mph - 0.19 in Rain Heavy Rain
11:15 PM 66.2 °F 64.4 °F 94% 29.79 in 4.0 mi East 6.9 mph - N/A Rain Light Rain
11:35 PM 66.2 °F 64.4 °F 94% 29.78 in 4.0 mi ESE 5.8 mph - 0.06 in Rain , Thunderstorm Rain
11:55 PM 66.2 °F 64.4 °F 94% 29.78 in 2.5 mi SSE 10.4 mph 18.4 mph N/A Rain Heavy Rain